| time (UTC) | temp F | wind direction | speed MPH | gust MPH | rain 1hr in | rain 24hr in | rain mn in | humidity % | barometer mb |
| 20260504110709 | 46 | 75 | 1.0 | 2.0 | 0.00 | 0.00 | 0.00 | 82 | 999.4 |
| 20260504100610 | 47 | 291 | 0.0 | 3.0 | 0.00 | 0.00 | 0.00 | 80 | 1000.0 |
| 20260504081300 | 48 | 113 | 1.0 | 3.0 | 0.00 | 0.00 | 0.00 | 77 | 1000.7 |
| 20260504080250 | 48 | 111 | 3.0 | 4.0 | 0.00 | 0.00 | 0.00 | 75 | 1001.0 |
| 20260504070110 | 49 | 78 | 0.0 | 0.0 | 0.00 | 0.00 | 0.00 | 69 | 1001.3 |
| 20260504045811 | 57 | 107 | 1.0 | 2.0 | 0.00 | 0.03 | 0.00 | 53 | 1002.0 |
| 20260504044749 | 58 | 144 | 1.0 | 2.0 | 0.00 | 0.03 | 0.00 | 53 | 1002.2 |
| 20260504043734 | 57 | 157 | 0.0 | 2.0 | 0.00 | 0.03 | 0.00 | 53 | 1002.0 |
| 20260504042710 | 57 | 143 | 2.0 | 2.0 | 0.00 | 0.03 | 0.00 | 54 | 1002.2 |
| 20260504041640 | 56 | 141 | 1.0 | 2.0 | 0.00 | 0.03 | 0.00 | 56 | 1002.2 |
| 20260504040639 | 56 | 62 | 0.0 | 1.0 | 0.00 | 0.03 | 0.00 | 56 | 1002.2 |
| 20260504035620 | 56 | 140 | 1.0 | 1.0 | 0.00 | 0.03 | 0.00 | 57 | 1002.2 |
| 20260504034609 | 57 | 103 | 0.0 | 1.0 | 0.00 | 0.03 | 0.00 | 56 | 1002.4 |
| 20260504033610 | 58 | 142 | 0.0 | 1.0 | 0.00 | 0.03 | 0.00 | 54 | 1002.4 |
| 20260504032540 | 58 | 134 | 1.0 | 1.0 | 0.00 | 0.03 | 0.00 | 54 | 1002.2 |
| 20260504031519 | 58 | 125 | 1.0 | 1.0 | 0.00 | 0.03 | 0.00 | 53 | 1002.3 |
| 20260504030509 | 60 | 132 | 1.0 | 2.0 | 0.00 | 0.03 | 0.00 | 51 | 1002.2 |
| 20260504025439 | 60 | 148 | 0.0 | 2.0 | 0.00 | 0.03 | 0.00 | 50 | 1002.1 |
| 20260504024419 | 61 | 166 | 1.0 | 1.0 | 0.00 | 0.03 | 0.00 | 50 | 1001.8 |
| 20260504023409 | 61 | 143 | 1.0 | 2.0 | 0.00 | 0.03 | 0.00 | 50 | 1001.9 |
| 20260504022424 | 62 | 141 | 1.0 | 2.0 | 0.00 | 0.03 | 0.00 | 49 | 1001.9 |
| 20260504021346 | 62 | 157 | 0.0 | 1.0 | 0.00 | 0.03 | 0.00 | 49 | 1001.6 |
| 20260504020340 | 62 | 137 | 0.0 | 1.0 | 0.00 | 0.03 | 0.00 | 49 | 1001.4 |
| 20260504015319 | 63 | 151 | 1.0 | 2.0 | 0.00 | 0.03 | 0.00 | 48 | 1001.4 |
| 20260504014325 | 64 | 228 | 0.0 | 1.0 | 0.00 | 0.03 | 0.00 | 46 | 1001.4 |
| 20260504013250 | 64 | 153 | 1.0 | 2.0 | 0.00 | 0.03 | 0.00 | 46 | 1001.3 |
| 20260504012219 | 65 | 142 | 0.0 | 1.0 | 0.00 | 0.03 | 0.00 | 45 | 1001.2 |
| 20260504011210 | 66 | 205 | 0.0 | 0.0 | 0.00 | 0.03 | 0.00 | 43 | 1000.8 |
| 20260504010149 | 67 | 157 | 0.0 | 2.0 | 0.00 | 0.03 | 0.00 | 41 | 1000.8 |
| 20260504005140 | 68 | 117 | 0.0 | 1.0 | 0.00 | 0.03 | 0.00 | 40 | 1000.7 |
| 20260504004120 | 69 | 211 | 0.0 | 2.0 | 0.00 | 0.03 | 0.00 | 39 | 1000.5 |
| 20260504003112 | 70 | 115 | 1.0 | 2.0 | 0.00 | 0.03 | 0.00 | 38 | 1000.5 |
| 20260504002110 | 70 | 192 | 2.0 | 5.0 | 0.00 | 0.03 | 0.00 | 38 | 1000.5 |
| 20260504001050 | 72 | 172 | 3.0 | 3.0 | 0.00 | 0.03 | 0.00 | 37 | 1000.4 |
| 20260504000040 | 72 | 203 | 1.0 | 2.0 | 0.00 | 0.03 | 0.00 | 37 | 1000.6 |
| 20260503235034 | 73 | 199 | 1.0 | 2.0 | 0.00 | 0.03 | 0.00 | 36 | 1000.3 |
| 20260503234010 | 73 | 210 | 0.0 | 4.0 | 0.00 | 0.03 | 0.00 | 36 | 1000.5 |
| 20260503232949 | 74 | 205 | 2.0 | 4.0 | 0.00 | 0.03 | 0.00 | 35 | 1000.3 |
| 20260503231940 | 73 | 164 | 2.0 | 2.0 | 0.00 | 0.03 | 0.00 | 36 | 1000.6 |
| 20260503230955 | 73 | 200 | 2.0 | 4.0 | 0.00 | 0.03 | 0.00 | 37 | 1000.6 |
| 20260503225920 | 72 | 173 | 2.0 | 5.0 | 0.00 | 0.03 | 0.00 | 37 | 1000.9 |
| 20260503224932 | 72 | 174 | 5.0 | 7.0 | 0.00 | 0.03 | 0.00 | 37 | 1000.7 |
| 20260503223910 | 74 | 193 | 4.0 | 6.0 | 0.00 | 0.03 | 0.00 | 36 | 1000.4 |
| 20260503222909 | 73 | 195 | 3.0 | 5.0 | 0.00 | 0.03 | 0.00 | 36 | 1000.9 |
| 20260503221849 | 74 | 149 | 3.0 | 5.0 | 0.00 | 0.03 | 0.00 | 36 | 1000.5 |
| 20260503220820 | 74 | 243 | 1.0 | 5.0 | 0.00 | 0.03 | 0.00 | 35 | 1000.7 |
| 20260503215810 | 74 | 198 | 2.0 | 4.0 | 0.00 | 0.03 | 0.00 | 36 | 1000.5 |
| 20260503214810 | 75 | 255 | 2.0 | 9.0 | 0.00 | 0.03 | 0.00 | 34 | 1000.6 |
| 20260503213740 | 74 | 311 | 0.0 | 5.0 | 0.00 | 0.03 | 0.00 | 35 | 1000.6 |
| 20260503212729 | 75 | 281 | 1.0 | 6.0 | 0.00 | 0.03 | 0.00 | 33 | 1000.6 |
| 20260503211735 | 75 | 167 | 1.0 | 5.0 | 0.00 | 0.03 | 0.00 | 35 | 1000.6 |
| 20260503210710 | 74 | 209 | 3.0 | 5.0 | 0.00 | 0.03 | 0.00 | 35 | 1000.9 |
| 20260503205710 | 73 | 282 | 2.0 | 6.0 | 0.00 | 0.03 | 0.00 | 35 | 1001.1 |
| 20260503204709 | 75 | 145 | 3.0 | 5.0 | 0.00 | 0.03 | 0.00 | 34 | 1001.2 |
| 20260503203649 | 74 | 185 | 7.0 | 7.0 | 0.00 | 0.03 | 0.00 | 33 | 1001.2 |
| 20260503202639 | 74 | 43 | 2.0 | 5.0 | 0.00 | 0.03 | 0.00 | 34 | 1001.3 |
| 20260503201620 | 74 | 116 | 0.0 | 6.0 | 0.00 | 0.03 | 0.00 | 33 | 1001.6 |
| 20260503200609 | 74 | 199 | 3.0 | 6.0 | 0.00 | 0.03 | 0.00 | 36 | 1001.7 |
| 20260503195540 | 73 | 173 | 3.0 | 6.0 | 0.00 | 0.03 | 0.00 | 35 | 1001.7 |
| 20260503194519 | 72 | 199 | 5.0 | 7.0 | 0.00 | 0.03 | 0.00 | 35 | 1002.0 |
| 20260503193510 | 72 | 195 | 3.0 | 4.0 | 0.00 | 0.03 | 0.00 | 37 | 1002.1 |
| 20260503192511 | 71 | 320 | 3.0 | 5.0 | 0.00 | 0.03 | 0.00 | 37 | 1002.0 |
| 20260503191449 | 71 | 314 | 0.0 | 6.0 | 0.00 | 0.03 | 0.00 | 37 | 1002.4 |
| 20260503190439 | 71 | 185 | 5.0 | 6.0 | 0.00 | 0.03 | 0.00 | 36 | 1002.4 |
| 20260503185440 | 71 | 154 | 4.0 | 4.0 | 0.00 | 0.03 | 0.00 | 38 | 1002.3 |
| 20260503184420 | 72 | 213 | 4.0 | 4.0 | 0.00 | 0.03 | 0.00 | 37 | 1002.5 |
| 20260503183410 | 71 | 131 | 2.0 | 4.0 | 0.00 | 0.03 | 0.00 | 38 | 1002.8 |
| 20260503182410 | 70 | 230 | 2.0 | 6.0 | 0.00 | 0.03 | 0.00 | 38 | 1003.1 |
| 20260503181346 | 69 | 218 | 2.0 | 7.0 | 0.00 | 0.03 | 0.00 | 37 | 1003.1 |
| 20260503180335 | 68 | 164 | 1.0 | 7.0 | 0.00 | 0.03 | 0.00 | 39 | 1003.1 |
| 20260503175325 | 68 | 213 | 9.0 | 10.0 | 0.00 | 0.03 | 0.00 | 39 | 1003.5 |
| 20260503174250 | 67 | 195 | 1.0 | 4.0 | 0.00 | 0.03 | 0.00 | 40 | 1003.7 |
| 20260503173220 | 67 | 194 | 2.0 | 5.0 | 0.00 | 0.03 | 0.00 | 40 | 1004.1 |
| 20260503172210 | 66 | 146 | 4.0 | 5.0 | 0.00 | 0.03 | 0.00 | 40 | 1004.2 |
| 20260503171205 | 65 | 287 | 3.0 | 6.0 | 0.00 | 0.03 | 0.00 | 40 | 1004.2 |
| 20260503170119 | 65 | 161 | 1.0 | 8.0 | 0.00 | 0.03 | 0.00 | 40 | 1004.5 |
| 20260503150950 | 52 | 249 | 2.0 | 4.0 | 0.00 | 0.02 | 0.00 | 60 | 1006.5 |